Wind_Speed
46 45 45 44 45 44 43 43 43 43 44 44 43 44 46 47 50 50 50 50 50 51 52 52 53 53 52 52 52 52 51 51 49 47 46 45 43 41 41 40 39 38 37
45 44 43 43 42 42 42 42 42 41 41 42 41 41 43 45 47 48 48 49 48 48 49 49 50 50 49 49 49 49 49 49 48 47 46 45 43 41 41 39 37 37 37
44 43 42 42 41 41 41 40 40 39 40 40 40 40 41 42 45 46 46 47 46 46 46 48 49 49 48 47 47 47 47 46 45 45 45 44 43 41 39 38 37 37 37
43 42 42 41 40 40 38 38 37 37 39 39 39 38 38 39 42 43 44 44 43 43 45 47 47 46 46 45 45 44 44 43 43 44 44 43 42 39 37 36 37 37 37
42 41 40 39 39 38 37 37 36 37 37 37 38 37 37 38 40 40 41 41 42 42 43 45 44 43 44 43 43 42 41 40 42 42 42 41 39 37 36 36 36 35 36
40 39 38 37 36 36 35 35 34 34 35 35 36 36 35 37 38 38 39 40 40 41 42 44 43 42 43 42 41 40 39 38 40 40 40 40 37 35 35 34 33 33 34
37 37 36 35 35 34 34 33 32 32 32 32 34 36 35 35 36 36 37 38 39 39 41 42 42 43 42 41 40 39 39 38 37 37 38 37 36 36 35 33 32 32 32
35 35 33 32 33 32 31 31 30 31 31 31 33 34 34 33 35 36 37 37 37 37 39 40 40 41 41 39 38 38 38 36 36 36 36 35 36 35 34 33 32 33 33
33 33 31 30 30 30 30 29 28 29 30 31 32 33 34 34 34 35 36 35 36 37 37 38 38 39 38 37 37 36 36 36 36 35 35 34 33 32 32 32 32 33 32
32 31 30 29 28 28 27 27 26 26 27 30 31 32 34 34 33 33 34 34 34 35 36 37 37 37 37 36 35 34 34 34 35 35 33 32 30 30 30 30 31 31 32
30 29 28 26 25 26 26 26 25 25 25 26 28 30 32 34 34 32 32 33 34 35 36 35 36 36 36 35 34 33 32 33 33 33 31 30 30 29 30 30 30 30 30
28 27 26 25 25 26 26 25 25 25 25 26 28 29 30 31 33 32 32 32 34 34 35 35 35 36 36 35 34 32 31 31 31 30 29 29 29 29 29 29 29 29 30
26 25 24 24 25 25 26 26 26 26 26 26 27 29 30 30 32 32 32 31 32 33 33 33 33 34 34 33 32 31 30 29 29 28 27 27 27 28 27 27 27 28 28
25 25 24 23 24 25 25 25 26 25 25 25 27 28 29 29 31 32 31 31 31 32 33 33 32 31 31 29 30 30 29 28 27 27 27 26 26 25 25 26 26 26 26
25 24 23 22 22 23 24 24 25 25 25 26 27 28 29 30 31 31 30 30 31 32 32 32 31 30 29 27 27 28 27 27 26 26 26 26 25 24 23 23 24 24 24
25 24 23 22 22 23 24 24 26 26 25 25 27 28 30 31 32 31 31 30 30 30 30 29 29 28 27 27 26 26 25 25 26 26 25 24 23 22 21 22 22 21 21
25 24 23 23 23 23 23 24 26 27 26 25 27 28 30 31 31 31 31 30 30 30 29 28 27 27 26 25 25 26 25 25 25 25 24 22 21 20 20 20 19 19 20
25 25 24 24 24 24 23 24 26 26 26 26 28 29 30 30 30 30 30 30 31 30 28 26 26 26 25 25 25 25 24 24 24 23 22 20 19 18 18 18 18 18 19
24 24 24 24 24 24 24 25 27 28 27 27 27 28 29 30 30 30 30 30 30 30 27 26 26 25 25 24 24 23 23 23 23 21 19 18 17 17 16 16 17 17 18
23 23 23 23 24 24 24 25 27 28 28 28 29 29 29 30 30 30 30 30 30 28 27 26 26 26 25 24 23 22 21 21 21 20 18 16 15 15 15 15 16 16 18
21 22 22 23 23 23 23 24 26 28 30 30 30 30 30 30 30 31 31 30 30 28 27 26 25 26 26 24 22 21 20 20 18 17 16 15 15 14 14 15 15 16 17
20 20 21 21 22 22 23 24 26 27 30 31 31 30 30 30 31 31 32 31 30 29 27 26 26 26 26 24 22 20 19 18 17 16 15 14 13 14 14 14 15 15 16
18 19 20 21 21 22 23 24 26 28 29 31 31 31 31 31 31 31 31 30 29 28 27 27 26 25 24 23 21 20 18 16 15 15 15 14 13 13 13 13 14 15 15
17 18 20 21 22 23 24 24 27 28 30 31 31 31 31 31 31 31 31 30 28 27 26 26 25 24 23 22 21 19 18 16 15 15 14 13 12 12 12 12 13 13 14
16 18 20 22 23 24 25 26 28 29 31 31 31 31 32 32 31 31 31 30 29 27 26 25 23 23 23 22 20 19 18 16 15 14 13 12 11 11 11 11 11 12 12
16 17 19 22 23 24 25 26 28 30 31 31 32 32 32 33 33 32 31 30 29 27 26 24 23 23 23 22 20 19 18 16 14 14 12 11 10 10 10 9 9 10 10
Wind_Direction
283 280 277 276 275 272 270 268 266 262 258 255 253 250 245 242 239 237 237 237 236 236 236 235 234 233 234 235 237 239 242 244 246 246 247 249 252 256 260 264 266 269 273
284 281 277 276 273 271 270 267 265 261 257 253 251 247 243 241 238 235 235 235 235 235 233 231 230 230 231 234 237 239 241 243 246 246 247 250 251 255 259 262 265 270 274
285 282 277 275 273 270 268 265 263 260 255 251 248 246 242 240 236 234 233 234 233 232 230 228 227 229 230 233 237 239 241 242 243 245 246 248 249 253 256 260 265 270 273
284 282 278 275 272 268 265 264 262 258 254 250 247 244 240 238 234 233 232 231 232 229 228 227 228 229 229 233 235 237 239 241 243 244 245 247 249 252 255 261 265 269 274
283 281 278 274 270 266 263 263 260 257 252 249 245 242 240 236 233 233 230 230 228 228 228 225 226 227 229 231 233 235 237 241 243 243 245 247 248 251 255 260 266 271 275
282 280 277 272 268 264 262 260 258 253 249 248 244 239 238 236 233 231 230 229 228 228 226 224 227 227 229 230 231 233 237 240 241 243 245 245 246 250 254 259 265 270 276
282 279 275 270 266 263 259 256 254 251 248 244 240 236 235 234 230 229 227 225 225 224 224 225 226 227 228 230 231 233 236 237 240 242 244 244 246 250 255 260 266 272 278
282 278 273 269 265 260 255 251 250 247 243 239 236 232 231 231 229 226 225 225 224 221 221 222 224 226 226 228 231 232 233 234 237 240 242 244 247 251 255 261 268 273 277
281 275 270 266 261 256 251 249 249 245 239 235 231 230 229 228 227 225 223 223 220 218 219 221 223 224 225 228 230 230 231 233 235 238 241 243 245 249 255 261 267 272 278
279 273 268 265 260 255 250 247 245 242 236 229 228 229 229 228 227 224 223 223 219 218 217 219 221 223 224 227 228 228 230 233 235 236 239 241 244 248 255 261 267 273 278
277 271 265 261 257 251 246 242 241 239 235 230 227 226 226 225 225 224 224 222 220 216 216 217 218 221 223 224 224 227 230 232 233 234 236 238 243 249 255 260 266 274 280
274 267 261 257 254 248 243 240 237 236 234 232 228 224 222 220 220 221 222 222 219 218 217 217 218 220 221 221 222 226 229 231 231 233 235 239 244 251 256 260 266 274 279
272 264 258 255 251 246 241 240 236 233 231 229 224 219 217 217 218 219 219 216 213 213 213 214 215 216 217 219 222 224 228 231 230 231 234 240 245 250 255 260 267 274 278
269 263 258 254 249 244 239 236 231 227 224 221 218 216 217 217 216 215 215 214 211 211 211 210 211 212 215 219 222 224 227 230 230 230 234 238 243 250 256 262 268 272 277
264 259 256 253 248 242 237 234 229 225 222 219 217 215 214 214 212 212 210 210 208 208 207 208 210 211 213 217 220 223 225 229 228 229 232 237 244 251 257 262 267 272 277
263 258 254 251 246 241 235 231 227 224 221 218 215 212 211 212 210 209 209 207 205 205 207 209 211 211 213 217 219 221 224 225 226 229 233 238 244 250 256 261 266 272 280
262 255 251 246 242 239 233 228 224 223 220 216 210 208 208 209 209 208 207 205 203 204 208 210 211 211 213 215 217 220 222 223 225 227 231 236 243 250 256 260 264 273 281
259 252 246 242 239 236 231 225 220 218 215 211 206 205 205 206 206 206 206 206 203 203 206 209 210 210 213 214 215 217 219 224 225 226 229 235 241 249 254 257 265 274 282
256 249 244 238 236 232 228 222 217 214 210 206 204 202 202 203 204 204 204 202 200 201 204 206 208 210 211 211 215 219 222 224 223 224 228 234 240 246 251 257 268 277 286
252 246 240 234 231 227 222 217 212 209 207 204 202 201 201 201 200 199 198 198 199 201 203 206 208 210 210 211 214 218 221 221 222 223 226 231 236 242 251 261 269 279 289
248 242 235 228 224 221 217 213 209 207 205 202 200 199 200 200 198 197 196 197 199 201 203 205 209 210 208 209 213 216 217 217 219 221 223 227 232 241 252 261 271 282 291
243 236 229 223 219 215 213 209 204 201 200 199 198 198 198 197 195 195 195 197 198 200 202 205 207 207 207 209 213 213 211 213 215 217 221 227 235 246 254 264 274 284 291
234 229 223 217 213 210 207 206 203 200 198 197 195 196 195 195 194 194 194 195 197 200 202 202 203 204 206 209 209 206 205 207 212 216 221 229 237 247 257 268 277 284 291
229 225 219 212 209 206 205 203 201 199 198 196 194 194 193 193 192 192 192 193 194 194 195 196 197 201 204 203 200 200 200 203 209 215 219 227 237 250 260 270 278 285 292
227 223 217 211 208 205 202 201 199 197 196 194 192 192 192 191 191 190 190 189 188 189 190 192 195 198 198 197 196 196 198 201 206 212 218 224 237 248 259 271 280 287 293
224 218 211 206 203 201 199 197 194 192 190 190 188 187 188 189 189 189 187 186 186 187 187 190 192 193 192 192 192 193 195 200 204 208 213 223 234 245 258 269 279 285 291
Height
5531 5528 5526 5524 5522 5521 5520 5519 5519 5520 5521 5523 5525 5527 5531 5535 5539 5544 5551 5558 5565 5572 5579 5587 5594 5602 5609 5616 5623 5628 5634 5640 5645 5651 5654 5657 5660 5663 5664 5666 5666 5666 5666
5518 5515 5513 5511 5510 5509 5508 5507 5507 5508 5510 5511 5513 5516 5519 5523 5528 5533 5540 5547 5554 5562 5569 5576 5584 5592 5599 5606 5612 5618 5623 5629 5634 5640 5644 5648 5651 5653 5655 5657 5657 5657 5657
5505 5503 5501 5499 5498 5497 5496 5496 5496 5497 5499 5500 5503 5505 5509 5513 5518 5524 5530 5537 5544 5551 5558 5566 5574 5582 5589 5596 5602 5607 5614 5619 5624 5630 5634 5638 5642 5644 5646 5647 5648 5649 5648
5493 5490 5488 5487 5486 5485 5485 5485 5485 5487 5488 5491 5493 5497 5500 5504 5509 5514 5520 5527 5534 5542 5549 5557 5565 5573 5580 5587 5593 5599 5605 5610 5615 5620 5625 5629 5632 5635 5637 5639 5640 5640 5640
5480 5478 5476 5475 5474 5474 5474 5475 5475 5477 5479 5481 5484 5488 5492 5496 5501 5506 5513 5519 5526 5533 5540 5548 5556 5564 5571 5577 5584 5590 5596 5601 5606 5611 5615 5619 5623 5626 5629 5630 5631 5631 5631
5468 5466 5464 5463 5463 5464 5464 5465 5466 5467 5469 5472 5476 5480 5484 5489 5494 5499 5505 5511 5518 5524 5532 5540 5548 5555 5562 5568 5575 5582 5588 5593 5598 5602 5606 5611 5615 5618 5620 5622 5623 5623 5623
5457 5455 5453 5453 5453 5454 5455 5456 5457 5459 5461 5463 5467 5472 5477 5482 5487 5492 5497 5504 5510 5517 5525 5533 5540 5547 5554 5560 5567 5573 5579 5585 5589 5594 5598 5602 5606 5610 5612 5614 5615 5615 5615
5447 5445 5444 5443 5444 5445 5446 5448 5449 5451 5453 5456 5460 5465 5470 5476 5481 5486 5491 5497 5503 5510 5518 5525 5533 5540 5546 5553 5559 5565 5571 5577 5581 5586 5590 5595 5598 5601 5603 5605 5606 5607 5606
5438 5436 5435 5435 5436 5437 5439 5440 5442 5444 5446 5450 5453 5458 5464 5470 5474 5480 5485 5491 5497 5504 5512 5519 5525 5532 5539 5545 5551 5558 5564 5569 5573 5578 5583 5586 5590 5593 5595 5597 5598 5598 5598
5429 5428 5427 5427 5429 5430 5432 5433 5435 5437 5439 5444 5448 5453 5458 5463 5468 5473 5479 5485 5491 5498 5505 5512 5519 5525 5532 5538 5544 5550 5556 5562 5566 5571 5575 5578 5582 5585 5587 5589 5590 5591 5590
5421 5420 5420 5420 5421 5423 5424 5427 5429 5431 5434 5438 5443 5447 5451 5457 5462 5467 5473 5479 5486 5492 5499 5506 5513 5519 5525 5531 5537 5543 5549 5554 5559 5563 5567 5571 5574 5577 5579 5582 5583 5583 5582
5413 5412 5412 5413 5414 5416 5418 5420 5423 5425 5428 5432 5436 5440 5445 5451 5457 5462 5468 5474 5480 5487 5494 5500 5507 5513 5519 5525 5531 5537 5542 5547 5552 5556 5560 5564 5567 5571 5573 5574 5574 5575 5574
5405 5405 5406 5406 5408 5409 5411 5414 5416 5419 5423 5426 5430 5435 5440 5445 5451 5456 5462 5468 5475 5481 5488 5494 5501 5507 5513 5519 5525 5530 5535 5539 5544 5549 5553 5557 5561 5563 5565 5566 5567 5567 5567
5398 5398 5399 5400 5401 5403 5405 5408 5410 5413 5417 5420 5425 5430 5435 5440 5446 5451 5457 5463 5469 5476 5482 5488 5495 5501 5507 5514 5519 5524 5529 5533 5538 5542 5547 5551 5553 5556 5558 5559 5560 5560 5559
5390 5390 5391 5392 5394 5396 5399 5401 5404 5407 5411 5416 5420 5425 5430 5436 5442 5447 5453 5459 5466 5472 5478 5484 5490 5497 5503 5508 5513 5518 5523 5528 5532 5536 5540 5544 5546 5549 5551 5552 5553 5553 5553
5383 5383 5385 5386 5388 5390 5392 5395 5398 5402 5406 5410 5415 5420 5426 5432 5438 5444 5450 5456 5462 5468 5474 5481 5487 5493 5498 5504 5509 5514 5518 5522 5527 5531 5534 5537 5540 5543 5545 5546 5546 5546 5546
5374 5376 5377 5379 5381 5384 5386 5389 5393 5397 5401 5405 5410 5416 5422 5428 5434 5440 5445 5452 5458 5464 5471 5477 5483 5489 5494 5499 5504 5509 5513 5518 5522 5526 5529 5532 5534 5537 5538 5540 5540 5540 5540
5366 5367 5369 5371 5374 5377 5380 5383 5387 5391 5395 5400 5406 5411 5417 5423 5429 5435 5441 5448 5454 5461 5467 5473 5479 5485 5490 5495 5500 5504 5509 5513 5517 5520 5523 5526 5529 5531 5533 5534 5535 5535 5534
5358 5360 5362 5364 5367 5370 5373 5377 5381 5385 5390 5395 5401 5406 5412 5419 5425 5431 5438 5444 5451 5458 5464 5470 5476 5481 5486 5491 5496 5500 5504 5508 5512 5515 5519 5522 5524 5526 5528 5529 5529 5529 5529
5350 5352 5354 5357 5360 5363 5367 5371 5375 5380 5385 5390 5396 5402 5409 5415 5421 5428 5434 5441 5448 5454 5461 5467 5472 5477 5482 5487 5492 5496 5500 5504 5508 5511 5514 5517 5520 5522 5523 5524 5524 5524 5523
5343 5345 5347 5350 5354 5358 5361 5366 5370 5374 5380 5386 5392 5399 5406 5412 5419 5425 5432 5438 5445 5451 5457 5463 5468 5473 5478 5484 5488 5493 5497 5501 5504 5507 5510 5513 5515 5517 5519 5519 5519 5519 5518
5337 5339 5341 5345 5348 5352 5356 5360 5365 5370 5375 5382 5389 5396 5402 5409 5416 5422 5429 5435 5442 5448 5454 5460 5465 5470 5476 5481 5485 5489 5493 5497 5500 5504 5506 5509 5511 5513 5514 5515 5515 5514 5513
5331 5333 5336 5339 5343 5347 5352 5356 5361 5367 5372 5379 5385 5392 5399 5406 5413 5420 5426 5432 5439 5445 5451 5457 5462 5467 5472 5477 5482 5486 5490 5494 5497 5500 5503 5506 5508 5509 5510 5510 5510 5510 5509
5325 5328 5331 5335 5339 5343 5348 5353 5357 5363 5369 5375 5382 5389 5396 5403 5410 5417 5423 5430 5436 5442 5448 5454 5459 5464 5469 5474 5478 5483 5487 5491 5494 5497 5500 5502 5504 5505 5506 5506 5506 5506 5505
5321 5323 5326 5330 5334 5339 5344 5349 5354 5360 5366 5372 5379 5386 5393 5401 5407 5414 5421 5427 5434 5440 5446 5451 5457 5462 5466 5471 5476 5480 5484 5488 5491 5494 5496 5498 5500 5501 5502 5502 5502 5502 5501
5316 5319 5322 5326 5330 5335 5340 5345 5351 5357 5363 5370 5377 5384 5391 5398 5405 5412 5419 5425 5432 5438 5444 5449 5454 5459 5464 5469 5473 5478 5482 5485 5488 5491 5493 5495 5497 5498 5499 5499 5499 5498 5498